This is the latest recevied weather packets stored in our database for station/object N2RDT. If no packets are shown the sender has not sent any weather packets the latest 10 day(s).
| Time | Temp. | Humidity | Pressure | Rain* | Wind** | Luminosity | Snow |
|---|---|---|---|---|---|---|---|
| 1777934795 | 26.11° C | 29% | 1013.7 hPa | 0 mm | - | 125 W/m² | - |
| 1777934492 | 26.11° C | 29% | 1013.6 hPa | 0 mm | - | 138 W/m² | - |
| 1777934189 | 26.11° C | 29% | 1013.7 hPa | 0 mm | - | 152 W/m² | - |
| 1777933885 | 26.11° C | 30% | 1013.7 hPa | 0 mm | - | 174 W/m² | - |
| 1777933582 | 25.56° C | 29% | 1013.6 hPa | 0 mm | - | 190 W/m² | - |
| 1777933280 | 26.11° C | 29% | 1013.7 hPa | 0 mm | - | 209 W/m² | - |
| 1777932976 | 26.11° C | 29% | 1013.6 hPa | 0 mm | - | 228 W/m² | - |
| 1777932674 | 26.11° C | 28% | 1013.5 hPa | 0 mm | - | 244 W/m² | - |
| 1777932370 | 26.11° C | 29% | 1013.6 hPa | 0 mm | - | 261 W/m² | - |
| 1777932068 | 26.11° C | 29% | 1013.7 hPa | 0 mm | - | 276 W/m² | - |
| 1777931763 | 26.11° C | 29% | 1013.7 hPa | 0 mm | - | 299 W/m² | - |
| 1777931461 | 26.67° C | 29% | 1013.5 hPa | 0 mm | - | 318 W/m² | - |
| 1777931157 | 26.11° C | 29% | 1013.8 hPa | 0 mm | - | 337 W/m² | - |
| 1777930853 | 26.67° C | 29% | 1013.7 hPa | 0 mm | - | 357 W/m² | - |
| 1777930550 | 26.11° C | 31% | 1013.8 hPa | 0 mm | - | 374 W/m² | - |
| 1777930247 | 26.67° C | 29% | 1013.8 hPa | 0 mm | - | 396 W/m² | - |
| 1777929943 | 26.67° C | 28% | 1013.9 hPa | 0 mm | - | 418 W/m² | - |
| 1777929640 | 26.67° C | 29% | 1013.7 hPa | 0 mm | - | 438 W/m² | - |
| 1777929337 | 26.67° C | 29% | 1013.6 hPa | 0 mm | - | 457 W/m² | - |
| 1777929034 | 26.67° C | 29% | 1013.6 hPa | 0 mm | - | 477 W/m² | - |
| 1777928731 | 26.67° C | 30% | 1013.7 hPa | 0 mm | - | 496 W/m² | - |
| 1777928427 | 26.67° C | 30% | 1013.9 hPa | 0 mm | - | 513 W/m² | - |
| 1777928126 | 26.11° C | 32% | 1013.8 hPa | 0 mm | - | 531 W/m² | - |
| 1777927823 | 26.11° C | 29% | 1013.7 hPa | 0 mm | - | 548 W/m² | - |
| 1777927521 | 26.11° C | 30% | 1014 hPa | 0 mm | - | 566 W/m² | - |
* Rain latest hour (hover to see other rain measurements)
** Current wind speed in m/s (hover to see current wind gust speed)